Regional Weather Roundup
Issued by NWS

Home | Current Version | Previous Version | Text Only | Print | Product List | Glossary Off
Versions: 1 2 3 4 5 6 7 8 9 10 11 12 13 14 15 16 17 18 19 20 21 22 23 24 25 26 27 28 29 30 31 32 33 34 35 36 37 38 39 40 41 42 43 44 45 46 47 48 49 50

246
ASUS43 KLMK 162302
RWRKY
KENTUCKY REGIONAL WEATHER ROUNDUP
NATIONAL WEATHER SERVICE LOUISVILLE KY
700 PM EDT MON OCT 16 2017

NOTE "FAIR" INDICATES FEW OR NO CLOUDS BELOW 12,000 FEET
WITH NO SIGNIFICANT WEATHER AND/OR OBSTRUCTIONS TO VISIBILITY.

KYZ001>023-026-027-061>063-070>075-170000-
WESTERN AND SOUTH CENTRAL KENTUCKY

CITY           SKY/WX    TMP DP  RH WIND       PRES   REMARKS
PADUCAH        CLEAR     60  35  39 NE6       30.29S
HENDERSON      CLEAR     60  36  40 N5        30.31S
OWENSBORO      CLEAR     61  37  41 N3        30.31R
HOPKINSVILLE   CLEAR     58  40  50 N7        30.29R HAZE
BOWLING GREEN  CLEAR     61  40  45 CALM      30.29R
GLASGOW        NOT AVBL
$$

KYZ024-025-028>034-038-045-046-053-170000-
NORTH CENTRAL KENTUCKY

CITY           SKY/WX    TMP DP  RH WIND       PRES   REMARKS
LOUISVILLE/SDF PTCLDY    60  36  40 N6        30.29R
LOUISVILLE/LOU CLEAR     60  37  42 N3        30.30R
FORT KNOX      CLEAR     57  40  53 N3        30.28R
$$

KYZ035>037-039>044-047>052-055>060-089>105-170000-
NORTHEAST KENTUCKY

CITY           SKY/WX    TMP DP  RH WIND       PRES   REMARKS
LEXINGTON      CLEAR     57  40  52 CALM      30.29R
COVINGTON      PTCLDY    57  36  45 N5        30.28R
FRANKFORT      CLEAR     57  38  48 CALM      30.28R
$$

KYZ054-064>069-076>088-106>120-170000-
SOUTHEAST KENTUCKY

CITY           SKY/WX    TMP DP  RH WIND       PRES   REMARKS
JACKSON        CLEAR     53  40  61 CALM      30.28R
LONDON         CLEAR     55  38  52 N6        30.28R
SOMERSET       NOT AVBL
MIDDLESBORO    PTCLDY    55  40  56 N5        30.26S
MONTICELLO     CLEAR     55  40  56 N15       30.30R
$$





USA.gov is the U.S. government's official web portal to all federal, state and local government web resources and services.